York, NE

3:02 PM CST on December 09, 2019 (GMT -0600)
York Municipal

Weather History for KJYR - October, 2019

Change the Weather History Date:

Friday, October 11, 2019

  Actual Average Record
Temperature  
Mean Temperature 34 °F -  
Max Temperature 41 °F 66 °F 95 °F (2015)
Min Temperature 28 °F 41 °F 26 °F (1987)
Degree Days  
Heating Degree Days 30    
Moisture  
Dew Point 24 °F    
Average Humidity 67    
Maximum Humidity 86    
Minimum Humidity 42    
Precipitation  
Precipitation 0.00 in - - ()
Sea Level Pressure  
Sea Level Pressure 30.16 in    
Wind  
Wind Speed 16 mph (WNW)    
Max Wind Speed 24 mph    
Max Gust Speed 33 mph    
Visibility 10 miles    
Events      
Averages and records for this station are not official NWS values.
T = Trace of Precipitation, MM = Missing Value Source: NWS Daily Summary

Daily Weather History Graph

Daily Weather History Graph

Search for Another Location

Airport or City:

Astronomy

Oct. 11, 2019 Rise Set
Actual Time 7:37 AM CDT 6:56 PM CDT
Civil Twilight 7:09 AM CDT 7:23 PM CDT
Nautical Twilight 6:37 AM CDT 7:55 PM CDT
Astronomical Twilight 6:06 AM CDT 8:27 PM CDT
Moon 6:27 PM CDT (10/11) 5:17 AM CDT (10/11)
Length of Visible Light 12h 14m
Length of Day
11h 19m
Waxing Gibbous, 96% of the Moon is Illuminated
Oct 11
Waxing Gibbous
Oct 13
Full
Oct 21
Last Quarter
Oct 27
New
Nov 4
First Quarter

Hourly Weather History & Observations

Time (CDT) Temp. Windchill Dew Point Humidity Pressure Visibility Wind Dir Wind Speed Gust Speed Precip Events Conditions
12:15 AM 33.8 °F 22.5 °F 28.4 °F 81% 30.13 in 10.0 mi NW 19.6 mph 25.3 mph N/A   Overcast
12:35 AM 33.8 °F 23.5 °F 28.4 °F 81% 30.13 in 10.0 mi NW 16.1 mph 26.5 mph N/A   Overcast
12:55 AM 33.8 °F 23.2 °F 26.6 °F 75% 30.11 in 10.0 mi NW 17.3 mph 28.8 mph N/A   Overcast
1:15 AM 33.8 °F 22.8 °F 26.6 °F 75% 30.11 in 10.0 mi NW 18.4 mph 27.6 mph N/A   Overcast
1:35 AM 33.8 °F 22.5 °F 26.6 °F 75% 30.12 in 10.0 mi NNW 19.6 mph 31.1 mph N/A   Overcast
1:55 AM 33.8 °F 22.2 °F 26.6 °F 75% 30.12 in 10.0 mi NNW 20.7 mph 29.9 mph N/A   Overcast
2:15 AM 33.8 °F 22.2 °F 26.6 °F 75% 30.13 in 10.0 mi NNW 20.7 mph 28.8 mph N/A   Overcast
2:35 AM 33.8 °F 22.8 °F 26.6 °F 75% 30.13 in 10.0 mi NW 18.4 mph 31.1 mph N/A   Overcast
2:55 AM 33.8 °F 22.5 °F 26.6 °F 75% 30.13 in 10.0 mi NW 19.6 mph 25.3 mph N/A   Overcast
3:15 AM 33.8 °F 23.2 °F 26.6 °F 75% 30.13 in 10.0 mi NW 17.3 mph 24.2 mph N/A   Overcast
3:35 AM 33.8 °F 23.9 °F 26.6 °F 75% 30.14 in 10.0 mi NW 15.0 mph 21.9 mph N/A   Overcast
3:55 AM 32.0 °F 21.6 °F 26.6 °F 80% 30.14 in 10.0 mi NW 15.0 mph 24.2 mph N/A   Overcast
4:15 AM 32.0 °F 20.8 °F 26.6 °F 80% 30.14 in 10.0 mi NW 17.3 mph 23.0 mph N/A   Overcast
4:35 AM 32.0 °F 22.1 °F 24.8 °F 75% 30.14 in 10.0 mi NW 13.8 mph 23.0 mph N/A   Overcast
4:55 AM 32.0 °F 21.2 °F 24.8 °F 75% 30.15 in 10.0 mi NW 16.1 mph 23.0 mph N/A   Overcast
5:15 AM 32.0 °F 20.8 °F 24.8 °F 75% 30.16 in 10.0 mi NW 17.3 mph 24.2 mph N/A   Overcast
5:35 AM 32.0 °F 20.8 °F 24.8 °F 75% 30.16 in 10.0 mi NW 17.3 mph 28.8 mph N/A   Overcast
5:55 AM 32.0 °F 20.8 °F 24.8 °F 75% 30.16 in 10.0 mi NW 17.3 mph 23.0 mph N/A   Overcast
6:15 AM 32.0 °F 21.6 °F 24.8 °F 75% 30.16 in 10.0 mi WNW 15.0 mph 24.2 mph N/A   Overcast
6:35 AM 32.0 °F 22.1 °F 24.8 °F 75% 30.17 in 10.0 mi NW 13.8 mph 23.0 mph N/A   Overcast
6:55 AM 32.0 °F 22.5 °F 24.8 °F 75% 30.17 in 10.0 mi NW 12.7 mph 20.7 mph N/A   Overcast
7:15 AM 32.0 °F 21.2 °F 24.8 °F 75% 30.16 in 10.0 mi NW 16.1 mph 19.6 mph N/A   Overcast
7:35 AM 32.0 °F 21.6 °F 23.0 °F 69% 30.17 in 10.0 mi WNW 15.0 mph 19.6 mph N/A   Overcast
7:55 AM 32.0 °F 19.8 °F 21.2 °F 64% 30.18 in 10.0 mi NW 20.7 mph 26.5 mph N/A   Overcast
8:15 AM 32.0 °F 23.0 °F 23.0 °F 69% 30.19 in 10.0 mi NW 11.5 mph 20.7 mph N/A   Overcast
8:35 AM 32.0 °F 22.1 °F 23.0 °F 69% 30.19 in 10.0 mi NW 13.8 mph 27.6 mph N/A   Overcast
8:55 AM 32.0 °F 21.2 °F 23.0 °F 69% 30.19 in 10.0 mi NW 16.1 mph 24.2 mph N/A   Scattered Clouds
9:15 AM 32.0 °F 23.0 °F 23.0 °F 69% 30.20 in 10.0 mi WNW 11.5 mph - N/A   Scattered Clouds
9:35 AM 32.0 °F 21.2 °F 23.0 °F 69% 30.20 in 10.0 mi WNW 16.1 mph 26.5 mph N/A   Mostly Cloudy
10:15 AM 32.0 °F 20.1 °F 23.0 °F 69% 30.20 in 10.0 mi WNW 19.6 mph 27.6 mph N/A   Partly Cloudy
10:35 AM 33.8 °F 22.5 °F 23.0 °F 65% 30.20 in 10.0 mi WNW 19.6 mph 26.5 mph N/A   Partly Cloudy
10:55 AM 35.6 °F 24.8 °F 23.0 °F 60% 30.20 in 10.0 mi NW 19.6 mph 29.9 mph N/A   Scattered Clouds
11:15 AM 35.6 °F 23.7 °F 23.0 °F 60% 30.20 in 10.0 mi NW 24.2 mph 31.1 mph N/A   Scattered Clouds
11:35 AM 37.4 °F 27.5 °F 23.0 °F 56% 30.20 in 10.0 mi NW 18.4 mph 26.5 mph N/A   Mostly Cloudy
11:55 AM 37.4 °F 27.5 °F 21.2 °F 52% 30.20 in 10.0 mi NW 18.4 mph 29.9 mph N/A   Mostly Cloudy
12:15 PM 39.2 °F 29.3 °F 23.0 °F 52% 30.20 in 10.0 mi NW 20.7 mph 26.5 mph N/A   Scattered Clouds
12:35 PM 37.4 °F 27.8 °F 21.2 °F 52% 30.19 in 10.0 mi NW 17.3 mph 27.6 mph N/A   Scattered Clouds
12:55 PM 39.2 °F 29.6 °F 23.0 °F 52% 30.18 in 10.0 mi WNW 19.6 mph 27.6 mph N/A   Mostly Cloudy
1:15 PM 39.2 °F 28.7 °F 23.0 °F 52% 30.18 in 10.0 mi NW 23.0 mph 29.9 mph N/A   Mostly Cloudy
1:35 PM 39.2 °F 29.6 °F 21.2 °F 49% 30.18 in 10.0 mi WNW 19.6 mph 33.4 mph N/A   Mostly Cloudy
1:55 PM 39.2 °F 29.3 °F 21.2 °F 49% 30.18 in 10.0 mi NW 20.7 mph 26.5 mph N/A   Overcast
2:15 PM 41.0 °F 31.9 °F 23.0 °F 49% 30.17 in 10.0 mi NW 19.6 mph 28.8 mph N/A   Overcast
2:35 PM 41.0 °F 32.5 °F 21.2 °F 45% 30.18 in 10.0 mi NW 17.3 mph 25.3 mph N/A   Overcast
2:55 PM 41.0 °F 32.2 °F 23.0 °F 49% 30.17 in 10.0 mi WNW 18.4 mph 28.8 mph N/A   Overcast
3:15 PM 39.2 °F 30.2 °F 23.0 °F 52% 30.17 in 10.0 mi West 17.3 mph 24.2 mph N/A   Overcast
3:35 PM 39.2 °F 29.6 °F 21.2 °F 49% 30.17 in 10.0 mi WNW 19.6 mph 25.3 mph N/A   Overcast
3:55 PM 41.0 °F 33.1 °F 21.2 °F 45% 30.17 in 10.0 mi NW 15.0 mph 23.0 mph N/A   Mostly Cloudy
4:15 PM 41.0 °F 31.4 °F 21.2 °F 45% 30.17 in 10.0 mi WNW 21.9 mph 26.5 mph N/A   Mostly Cloudy
4:35 PM 41.0 °F 31.6 °F 19.4 °F 42% 30.16 in 10.0 mi WNW 20.7 mph 27.6 mph N/A   Scattered Clouds
4:55 PM 41.0 °F 31.9 °F 19.4 °F 42% 30.16 in 10.0 mi WNW 19.6 mph 29.9 mph N/A   Partly Cloudy
5:15 PM 41.0 °F 32.8 °F 19.4 °F 42% 30.17 in 10.0 mi WNW 16.1 mph 24.2 mph N/A   Clear
5:35 PM 39.2 °F 29.8 °F 19.4 °F 45% 30.17 in 10.0 mi WNW 18.4 mph 25.3 mph N/A   Clear
5:55 PM 39.2 °F 30.2 °F 21.2 °F 49% 30.17 in 10.0 mi WNW 17.3 mph 23.0 mph N/A   Clear
6:15 PM 39.2 °F 30.5 °F 21.2 °F 49% 30.16 in 10.0 mi West 16.1 mph 19.6 mph N/A   Clear
6:35 PM 37.4 °F 28.2 °F 21.2 °F 52% 30.16 in 10.0 mi WNW 16.1 mph 21.9 mph N/A   Clear
6:55 PM 37.4 °F 29.8 °F 23.0 °F 56% 30.16 in 10.0 mi West 11.5 mph 17.3 mph N/A   Clear
7:15 PM 35.6 °F 28.0 °F 23.0 °F 60% 30.16 in 10.0 mi West 10.4 mph - N/A   Clear
7:35 PM 33.8 °F 27.0 °F 23.0 °F 65% 30.16 in 10.0 mi West 8.1 mph - N/A   Clear
7:55 PM 32.0 °F 25.6 °F 23.0 °F 69% 30.16 in 10.0 mi West 6.9 mph - N/A   Clear
8:15 PM 32.0 °F 27.5 °F 24.8 °F 75% 30.16 in 10.0 mi West 4.6 mph - N/A   Clear
8:35 PM 32.0 °F - 24.8 °F 75% 30.16 in 10.0 mi Calm Calm - N/A   Clear
8:55 PM 30.2 °F - 24.8 °F 80% 30.15 in 10.0 mi Calm Calm - N/A   Clear
9:15 PM 28.4 °F 24.6 °F 24.8 °F 86% 30.15 in 10.0 mi WSW 3.5 mph - N/A   Clear
9:35 PM 28.4 °F 21.2 °F 24.8 °F 86% 30.15 in 10.0 mi WSW 6.9 mph - N/A   Clear
9:55 PM 28.4 °F - 24.8 °F 86% 30.14 in 10.0 mi Calm Calm - N/A   Clear
10:15 PM 28.4 °F 22.2 °F 24.8 °F 86% 30.14 in 10.0 mi SW 5.8 mph - N/A   Clear
10:35 PM 28.4 °F 22.2 °F 24.8 °F 86% 30.13 in 10.0 mi WSW 5.8 mph - N/A   Clear
10:55 PM 28.4 °F - 24.8 °F 86% 30.13 in 10.0 mi Calm Calm - N/A   Clear
11:15 PM 28.4 °F 21.2 °F 24.8 °F 86% 30.13 in 10.0 mi SW 6.9 mph - N/A   Clear
11:35 PM 28.4 °F 20.4 °F 24.8 °F 86% 30.12 in 10.0 mi SW 8.1 mph - N/A   Clear
11:55 PM 28.4 °F 22.2 °F 24.8 °F 86% 30.12 in 10.0 mi WSW 5.8 mph - N/A   Clear